#timestamp,LO_Frequency,Hit,StdDev 
1688900415.7,286046990.8,P
1688900435.5,286046987.7,P
1688900455.4,286046984.6,Y
1688900475.2,286046992.1,P
1688900495.0,286046990.6,P
1688900496.0,286046990.6,P
1688900515.8,286046990.7,Y
1688900535.6,286046999.4,P
1688900555.5,286046999.3,N
1688900575.3,286047004.1,N
1688900595.1,286047006.8,N
1688900615.9,286047006.5,N
1688900635.7,286047004.8,N
1688900655.6,286047005.8,N
1688900675.4,286047007.1,N
1688900695.2,286047005.9,N
1688900715.1,286047003.9,N
1688900716.0,286047003.9,N
1688900735.8,286047001.6,N
1688900755.7,286047003.6,N
1688900775.5,286047001.3,N
1688900795.3,286047001.7,N
1688900815.2,286047000.1,N
1688900835.0,286046999.3,N
1688900835.9,286046999.3,N
1688900855.8,286047002.2,N
1688900875.6,286047002.0,N
1688900895.4,286047002.0,N
1688900915.3,286047001.3,N
1688900935.1,286047002.0,N
1688900955.9,286047002.7,N
1688900975.7,286047006.0,N
1688900995.5,286047005.0,N
1688901015.4,286047004.8,N
1688901035.2,286047003.9,N
1688901055.0,286047001.2,N
1688901055.9,286047001.2,N
1688901075.8,286047001.5,N
1688901095.6,286046999.8,N
1688901115.5,286047002.1,N
1688901135.3,286047001.8,N
1688901155.1,286047003.8,N
1688901175.9,286047004.4,N
1688901195.7,286047003.6,N
1688901215.5,286047003.5,N
1688901235.4,286047003.6,N
1688901255.2,286047000.0,N
1688901275.1,286047000.1,N
1688901276.0,286047000.1,N
1688901295.8,286047000.3,N
1688901315.6,286047004.6,N
1688901335.5,286046998.3,N
1688901355.3,286047003.4,N
1688901405.2,286047009.1,E
1688901415.1,286047001.8,N
1688901416.0,286047001.8,P
1688901435.8,286046992.7,P
1688901455.7,286046990.3,N
1688901475.5,286046991.8,N
1688901495.3,286046993.2,N
1688901515.2,286046989.8,N
1688901535.0,286046985.8,N
1688901535.9,286046985.8,N
1688901555.8,286046993.6,N
1688901575.6,286046993.7,N
1688901595.4,286046992.0,N
1688901615.3,286046992.6,N
1688901635.1,286046991.8,N
1688901655.8,286046994.2,N
1688901675.7,286046993.2,N
1688901695.5,286046992.0,N
1688901715.4,286046994.7,N
1688901735.2,286046992.2,N
1688901755.0,286046992.5,N
1688901755.9,286046992.5,N
1688901775.8,286046989.7,N
1688901795.6,286046990.6,N
1688901815.4,286046988.0,Y
1688901835.3,286046995.8,P
1688901855.1,286046995.6,N
1688901875.9,286046994.9,P
1688901895.7,286046995.9,Y
1688901915.5,286047004.4,P
1688901935.4,286047001.7,N
1688901955.2,286047002.4,N
1688901975.1,286047002.7,N
1688901976.0,286047002.7,N
1688901995.8,286046999.9,N
1688902015.6,286047000.2,N
1688902035.5,286046998.5,N
1688902055.3,286046998.9,N
1688902075.1,286047000.8,N
1688902095.9,286047002.8,N
1688902115.7,286046997.7,N
1688902135.6,286047001.2,N
1688902155.4,286046998.2,N
1688902175.2,286047000.9,N
1688902195.1,286047000.7,N
1688902196.0,286047000.7,N
1688902215.8,286047000.8,N
1688902235.6,286047002.8,N
1688902255.5,286046999.9,N
1688902275.3,286047001.1,N
1688902295.2,286046997.4,N
1688902315.9,286046998.4,N
1688902335.7,286047001.2,N
1688902355.6,286046996.6,N
1688902375.4,286046997.3,N
1688902395.2,286047002.8,N
1688902415.1,286047000.5,N
1688902416.0,286047000.5,N
1688902435.8,286047000.8,N
1688902455.7,286047001.2,N
1688902475.5,286047000.8,N
1688902495.3,286047000.8,N
1688902515.2,286046999.2,N
1688902535.9,286047001.2,N
1688902555.7,286046999.8,N
1688902575.6,286047002.7,N
1688902595.4,286047002.2,N
1688902615.3,286047002.8,N
1688902635.1,286047001.5,N
1688902636.0,286047001.5,N
1688902655.8,286046999.9,N
1688902675.7,286047000.7,N
1688902695.5,286047000.2,N
1688902715.3,286047002.4,N
1688902735.2,286047000.4,N
1688902755.0,286047002.6,N
1688902755.9,286047002.6,N
1688902775.8,286047000.3,N
1688902795.6,286047000.1,N
1688902815.4,286047000.4,N
1688902835.3,286047000.1,N
1688902855.1,286047000.8,N
1688902875.8,286047000.3,N
1688902895.7,286047000.3,N
1688902915.5,286046998.1,N
1688902935.4,286047011.9,Y
1688902955.2,286046995.6,P
1688902975.0,286046997.3,N
1688902975.9,286046997.3,N
1688902995.8,286046995.0,N
1688903015.6,286046994.3,N
1688903035.4,286046988.9,Y
1688903055.3,286046989.3,P
1688903075.1,286046987.0,P
1688903095.9,286046987.0,P
1688903115.7,286046986.7,Y
1688903135.5,286046996.5,P
1688903155.4,286047002.5,N
1688903175.2,286047001.8,N
1688903195.1,286047005.9,N
1688903196.0,286047005.9,N
1688903215.8,286047003.5,N
1688903235.6,286047001.8,N
1688903255.5,286046999.7,N
1688903275.3,286047001.6,N
1688903295.1,286047004.2,N
1688903315.9,286047003.6,N
1688903335.7,286047004.3,N
1688903355.6,286047001.6,N
1688903375.4,286047006.0,N
1688903395.2,286047002.2,N
1688903415.1,286047004.2,N
1688903416.0,286047004.2,N
1688903435.8,286047001.7,N
1688903455.6,286046999.7,N
1688903475.5,286047002.1,N
1688903495.3,286047000.3,N
1688903515.2,286047000.0,N
1688903535.9,286047001.4,N
1688903555.7,286047001.4,N
1688903575.6,286047000.1,N
1688903595.4,286047000.6,N
1688903615.2,286047001.4,N
1688903635.1,286047002.6,N
1688903636.0,286047002.6,N
1688903655.8,286047005.3,N
1688903675.7,286047006.0,N
1688903695.5,286047004.9,N
1688903715.3,286047004.8,N
1688903735.2,286047005.5,N
1688903755.0,286047005.2,N
1688903755.9,286047005.2,N
1688903775.8,286047005.4,N
1688903795.6,286047005.1,N
1688903815.4,286047003.6,N
1688903835.3,286047003.9,N
1688903855.1,286047001.4,N
1688903875.8,286047003.2,N
1688903895.7,286046999.5,N
1688903915.5,286047002.4,N
1688903935.4,286046998.1,N
1688903955.2,286046998.8,N
1688903975.0,286046997.8,N
1688903975.9,286046997.8,N
1688903995.8,286046998.9,N
